Location: Quedlinburg
(51.7921°N, 11.1414°E)
Time: 20:06:35
(UTC+02:00)

RS-15 - Pass Details

Date: 14 March 2026
Orbit: 1893 x 2152 km, 64.8° (Epoch: 17 April)

Event Time Altitude Azimuth Distance (km) Brightness Sun altitude
Rises 02:20:40 0° 299° (WNW) 5,330 10.3 -35.2°
Reaches altitude 10° 02:24:08 10° 306° (NW) 4,356 9.8 -34.8°
Maximum altitude 02:34:57 49° 19° (NNE) 2,469 8.7 -33.8°
Drops below altitude 10° 02:46:15 10° 93° (E) 4,549 10.4 -32.6°
Sets 02:49:57 0° 99° (E) 5,581 10.9 -32.2°
